Temp
46 46 46 47 48 51 51 51 50 44 46 52 50 55 54 52 49 50 46 43 43 42 42 43 44 44 45 46 45 45 45 45 45 46 48 49 50 50
46 47 48 50 50 51 53 54 54 50 46 57 52 53 55 53 48 51 45 44 42 42 41 41 42 42 42 43 43 43 43 43 43 43 45 46 47 47
49 48 47 49 48 49 49 50 50 52 47 52 55 51 51 50 47 48 47 45 42 41 40 40 40 40 40 41 41 40 41 40 41 41 42 43 44 44
46 46 44 46 45 46 47 46 46 49 45 45 48 46 47 49 48 48 48 46 42 41 40 39 39 39 39 39 39 39 39 39 39 38 38 39 40 41
48 46 45 46 46 45 42 43 45 47 46 48 47 47 48 48 46 48 47 42 42 40 39 38 38 39 38 38 38 37 37 37 37 37 36 37 37 38
47 47 46 46 46 47 47 47 48 46 45 48 47 45 44 44 45 43 41 43 39 41 38 39 40 39 38 38 37 37 36 36 36 36 35 35 35 36
44 44 43 36 33 35 43 45 44 45 45 45 44 42 42 39 40 45 42 40 38 39 38 39 39 38 37 37 37 36 35 35 35 35 35 35 35 35
43 42 38 34 33 32 32 31 34 37 43 43 43 40 40 40 42 44 44 38 34 40 37 36 41 38 36 37 36 35 34 33 33 33 33 34 34 33
43 40 39 35 37 34 31 31 31 32 33 36 38 33 39 39 41 40 42 42 40 38 38 32 38 32 36 34 35 35 34 33 33 32 32 32 33 33
33 34 35 34 33 32 32 31 30 31 31 32 31 31 32 36 38 42 42 35 36 37 37 30 33 31 33 34 33 33 33 33 33 33 32 32 31 32
33 33 32 31 30 31 30 29 28 27 30 30 29 29 29 30 32 38 37 35 30 30 33 31 31 30 31 31 31 31 31 31 31 31 31 32 32 31
32 32 32 32 30 29 30 29 27 27 27 27 29 30 30 30 31 32 38 35 32 28 31 30 30 31 26 31 31 31 30 30 30 30 31 31 32 35
31 30 31 31 30 29 31 31 30 30 28 29 29 31 31 31 32 32 31 31 33 30 32 32 31 30 30 27 30 31 32 32 31 30 30 31 31 32
32 32 31 31 31 29 30 30 30 31 30 30 30 30 30 30 30 30 31 31 31 31 30 31 31 31 30 29 26 30 31 32 32 31 32 30 29 31
33 32 31 31 31 29 29 29 29 30 30 30 30 31 31 31 30 30 30 30 30 30 30 30 30 32 31 31 28 28 27 30 32 31 31 30 30 31
31 31 30 30 30 30 28 28 30 32 31 32 32 32 32 30 31 32 30 31 29 27 29 31 31 31 31 31 31 28 30 27 30 30 30 31 32 32
31 30 29 29 29 28 29 30 31 32 32 33 33 32 32 33 33 34 33 33 30 28 27 30 31 32 31 29 28 29 29 28 29 28 28 29 29 30
30 29 28 29 29 30 30 30 32 32 34 35 35 35 33 33 34 34 35 33 32 32 31 30 29 28 28 29 27 29 29 29 29 28 27 26 28 29
30 30 30 30 31 33 33 33 32 35 36 35 34 34 34 35 34 33 33 33 33 34 34 34 31 29 26 24 28 28 28 29 29 28 29 28 27 28
32 31 31 32 33 34 35 35 35 35 34 34 33 34 33 33 32 33 33 32 33 33 33 34 33 32 29 28 26 28 25 29 28 28 28 30 30 26
32 32 33 33 34 36 35 35 34 33 33 32 33 32 31 33 32 33 33 31 32 33 31 31 34 29 34 31 24 26 27 26 26 26 28 26 26 27
33 33 34 34 34 36 34 33 32 32 31 31 31 31 31 32 32 32 32 31 31 32 33 35 32 31 30 28 27 27 28 27 26 25 25 22 23 21
33 34 34 34 35 35 35 33 33 33 32 32 32 32 31 30 32 33 32 31 32 31 33 32 32 31 29 29 27 28 28 24 27 27 26 24 24 22
MSLP
1021.48 1022.07 1022.34 1022.35 1021.98 1022.10 1022.46 1022.32 1021.78 1022.35 1022.45 1022.66 1023.24 1024.19 1024.87 1025.49 1026.93 1026.91 1027.53 1028.00 1027.93 1028.53 1028.70 1028.17 1028.25 1028.13 1027.90 1027.74 1028.19 1027.66 1027.50 1027.24 1026.60 1025.94 1025.24 1024.68 1024.59 1024.62
1021.57 1021.96 1021.77 1021.79 1022.11 1022.23 1021.99 1022.00 1022.11 1022.45 1022.32 1021.63 1023.10 1023.87 1024.51 1025.36 1026.48 1026.86 1027.58 1028.25 1028.40 1028.86 1028.80 1028.94 1028.78 1028.54 1028.32 1028.31 1028.22 1028.28 1028.08 1027.85 1027.34 1026.97 1026.74 1026.35 1026.24 1026.00
1021.30 1021.63 1021.50 1021.64 1022.14 1022.42 1022.73 1022.75 1022.93 1022.50 1022.55 1022.14 1022.96 1023.85 1024.74 1025.25 1026.48 1026.74 1027.40 1027.78 1028.53 1028.77 1028.91 1028.92 1028.91 1029.14 1029.10 1028.66 1028.58 1028.64 1028.90 1028.64 1028.83 1028.31 1027.75 1027.54 1027.17 1026.69
1021.81 1021.77 1022.22 1022.47 1022.58 1023.06 1023.05 1022.98 1023.16 1023.12 1023.28 1023.12 1023.54 1024.52 1025.25 1025.48 1026.06 1026.17 1026.56 1027.42 1028.28 1028.82 1028.79 1029.01 1029.34 1029.18 1029.42 1029.40 1029.90 1029.59 1029.36 1029.02 1029.26 1029.14 1028.76 1028.48 1028.00 1027.26
1021.24 1021.57 1022.03 1022.45 1022.72 1022.99 1023.23 1023.38 1023.37 1023.23 1023.32 1023.24 1023.68 1024.44 1024.97 1025.38 1025.66 1025.87 1026.22 1027.47 1028.27 1028.94 1028.95 1029.24 1029.71 1029.56 1029.50 1029.57 1030.20 1029.70 1030.12 1029.92 1029.91 1029.80 1029.24 1028.98 1028.56 1028.06
1021.62 1021.83 1021.73 1022.10 1022.54 1022.88 1022.93 1023.00 1023.16 1023.39 1023.65 1023.23 1023.46 1024.47 1024.97 1025.63 1025.74 1025.92 1026.38 1026.85 1027.86 1028.61 1029.37 1029.12 1029.81 1029.90 1029.98 1030.24 1030.30 1030.42 1030.53 1030.59 1030.48 1029.96 1029.54 1029.22 1029.08 1028.67
1021.74 1022.15 1022.64 1023.60 1024.05 1024.16 1023.89 1023.50 1023.86 1023.72 1023.78 1023.50 1023.70 1024.29 1024.82 1025.62 1025.70 1025.32 1026.10 1027.06 1027.94 1028.42 1028.95 1029.03 1029.74 1030.20 1030.21 1030.77 1030.56 1030.78 1030.95 1030.72 1030.70 1030.26 1029.93 1029.93 1029.78 1029.41
1021.45 1022.28 1023.22 1024.04 1024.46 1024.74 1024.59 1025.31 1025.19 1024.92 1024.43 1023.91 1023.88 1024.64 1024.74 1025.27 1025.59 1025.22 1025.69 1026.70 1027.59 1028.49 1028.73 1029.27 1029.42 1029.94 1030.45 1030.73 1030.79 1031.48 1031.38 1031.15 1031.26 1030.89 1030.80 1030.54 1030.29 1030.14
1021.28 1021.93 1022.84 1023.89 1023.98 1024.70 1025.12 1025.32 1025.76 1025.86 1025.80 1025.34 1025.06 1025.74 1025.42 1025.58 1025.82 1025.68 1026.05 1026.03 1026.34 1027.64 1028.66 1029.59 1029.74 1030.43 1030.67 1031.30 1031.34 1031.68 1031.38 1031.40 1031.55 1031.60 1031.45 1031.18 1030.77 1030.55
1022.22 1022.39 1023.28 1023.81 1024.30 1024.86 1025.45 1025.56 1025.92 1026.10 1026.20 1026.40 1026.58 1026.73 1026.82 1026.76 1026.76 1025.99 1026.00 1027.32 1027.80 1028.39 1029.06 1029.50 1030.05 1030.50 1030.97 1031.31 1031.86 1031.85 1031.74 1031.70 1031.86 1031.78 1031.65 1031.34 1031.06 1030.84
1022.73 1023.29 1023.63 1024.51 1025.14 1025.29 1025.43 1025.58 1025.72 1026.82 1026.96 1027.18 1027.44 1027.56 1027.58 1027.75 1027.87 1026.75 1026.60 1027.30 1028.19 1029.06 1029.53 1029.36 1029.98 1030.50 1030.98 1031.45 1031.90 1032.08 1032.12 1032.08 1032.25 1032.20 1031.80 1031.28 1030.74 1030.64
1023.16 1023.78 1024.08 1024.45 1025.28 1025.49 1025.24 1025.24 1025.89 1026.73 1027.18 1027.56 1027.52 1027.64 1027.80 1027.96 1028.16 1028.00 1027.09 1027.16 1027.95 1029.00 1029.47 1029.59 1029.78 1030.22 1030.64 1031.18 1031.56 1031.78 1032.04 1032.20 1032.32 1032.30 1031.86 1031.30 1030.53 1029.76
1022.75 1023.49 1024.09 1024.58 1025.14 1025.45 1025.30 1025.44 1025.66 1026.30 1026.98 1027.27 1027.42 1027.64 1027.78 1028.01 1028.12 1028.30 1028.28 1028.26 1027.96 1028.43 1029.12 1029.52 1029.56 1029.96 1030.06 1030.62 1031.27 1031.56 1031.66 1031.68 1031.84 1032.08 1031.86 1031.58 1031.20 1030.78
1022.26 1022.90 1023.61 1024.45 1024.98 1025.45 1025.74 1025.82 1026.09 1026.33 1026.79 1027.02 1027.13 1027.40 1027.78 1028.20 1028.49 1028.67 1029.06 1029.17 1029.00 1028.93 1029.60 1029.75 1029.36 1029.62 1029.88 1030.14 1030.61 1031.33 1031.58 1031.73 1031.62 1031.62 1031.46 1031.67 1031.61 1031.39
1021.97 1022.68 1023.54 1024.36 1024.85 1025.55 1025.93 1026.18 1026.39 1026.40 1026.55 1026.66 1026.83 1027.18 1027.70 1028.18 1028.84 1029.16 1029.46 1029.50 1029.52 1029.82 1030.00 1030.03 1029.91 1029.79 1029.84 1029.75 1030.15 1030.75 1031.28 1031.51 1031.50 1031.35 1031.40 1031.47 1031.41 1031.22
1022.19 1023.00 1023.78 1024.36 1024.90 1025.18 1025.98 1026.42 1026.23 1026.03 1026.16 1026.23 1026.42 1026.99 1027.67 1028.34 1028.41 1028.72 1028.91 1029.17 1029.48 1029.99 1030.24 1030.31 1030.25 1030.16 1029.94 1030.04 1030.10 1030.66 1031.02 1031.07 1031.27 1031.48 1031.42 1031.38 1031.40 1031.41
1022.14 1023.00 1023.65 1023.99 1024.43 1024.91 1025.38 1025.69 1025.76 1025.70 1025.79 1025.80 1026.01 1026.58 1027.14 1027.52 1027.64 1028.01 1028.22 1028.50 1028.61 1029.22 1029.91 1030.36 1030.48 1030.36 1030.36 1030.69 1030.57 1030.71 1030.95 1031.13 1031.34 1031.62 1031.58 1031.20 1031.40 1031.60
1021.69 1022.28 1022.80 1023.19 1023.52 1023.90 1024.20 1024.60 1024.90 1024.99 1025.12 1025.30 1025.55 1025.89 1026.29 1026.70 1027.00 1027.40 1027.63 1027.79 1027.90 1028.31 1028.94 1029.74 1030.27 1030.49 1030.79 1031.06 1031.25 1030.77 1030.93 1030.90 1031.18 1031.58 1031.68 1031.22 1031.02 1031.44
1020.96 1021.44 1021.82 1022.24 1022.60 1022.84 1023.12 1023.45 1023.88 1024.13 1024.55 1024.78 1025.18 1025.42 1025.76 1026.08 1026.48 1026.87 1027.16 1027.36 1027.43 1027.70 1028.00 1028.76 1029.31 1029.55 1029.57 1029.72 1030.77 1031.12 1030.82 1030.80 1031.01 1031.00 1030.98 1030.93 1030.93 1031.18
1020.26 1020.57 1020.97 1021.42 1021.73 1021.88 1022.18 1022.62 1023.11 1023.54 1024.08 1024.48 1024.91 1025.17 1025.59 1025.81 1026.12 1026.34 1026.63 1026.99 1027.17 1027.44 1027.67 1028.15 1028.60 1028.76 1028.91 1029.03 1029.70 1030.60 1031.25 1030.89 1030.84 1030.66 1030.63 1030.54 1030.84 1031.44
1019.42 1019.84 1020.34 1020.78 1021.14 1021.22 1021.62 1022.07 1022.58 1023.11 1023.78 1024.30 1024.61 1025.02 1025.47 1025.60 1025.83 1026.10 1026.16 1026.62 1026.99 1027.13 1027.42 1027.78 1028.10 1028.81 1028.90 1029.71 1030.03 1030.20 1030.76 1031.32 1031.48 1031.22 1030.98 1030.95 1030.73 1030.55
1018.55 1019.04 1019.61 1020.08 1020.46 1020.72 1021.15 1021.80 1022.38 1022.94 1023.55 1024.09 1024.34 1024.74 1025.14 1025.44 1025.46 1025.82 1026.06 1026.29 1026.83 1026.91 1027.10 1027.45 1028.55 1028.88 1029.21 1029.26 1029.13 1029.31 1029.73 1030.64 1031.32 1031.58 1031.74 1031.91 1031.59 1031.12
1017.79 1018.28 1018.86 1019.35 1019.76 1020.14 1020.68 1021.41 1021.89 1022.34 1022.83 1023.40 1023.74 1024.22 1024.73 1025.05 1025.22 1025.46 1025.86 1026.18 1026.42 1026.78 1026.78 1027.07 1027.75 1028.53 1028.62 1028.67 1028.97 1028.94 1029.10 1030.04 1030.30 1030.26 1030.62 1031.15 1031.51 1031.74
Wind_Speed
5 5 4 3 2 1 3 5 6 6 7 9 6 8 7 8 11 9 10 12 11 11 11 11 12 13 12 13 14 16 18 20 20 20 22 24 23 23
5 6 6 4 3 1 2 2 3 5 8 7 7 7 6 8 8 4 11 11 10 10 11 11 12 13 14 12 15 17 19 19 21 20 19 19 19 19
8 8 7 6 4 4 2 2 4 3 5 5 6 7 6 6 7 8 9 8 7 10 11 11 12 12 13 13 16 15 15 16 16 17 18 17 17 18
6 6 5 4 5 4 3 3 2 1 2 5 5 5 6 5 8 7 9 7 8 9 11 11 10 11 12 13 15 15 15 15 15 15 15 16 17 18
8 7 6 4 4 3 4 4 5 3 3 4 6 7 8 7 6 5 5 9 7 10 10 9 8 10 12 13 14 15 13 12 14 14 15 16 17 18
5 3 4 3 3 3 4 4 4 5 8 7 6 7 5 5 7 6 5 7 6 5 5 7 4 8 10 12 13 14 12 11 10 14 16 16 17 18
6 6 6 8 10 8 2 4 4 5 5 6 7 6 7 5 6 6 7 8 6 4 3 3 4 3 8 9 11 14 14 13 13 13 15 14 16 18
9 9 9 10 9 9 9 11 7 4 4 4 3 4 4 5 6 6 7 8 5 5 5 3 2 5 7 6 11 12 13 14 13 12 11 13 15 16
8 9 8 6 8 9 11 12 10 10 8 5 4 5 2 4 1 4 6 5 3 8 7 4 3 6 6 7 9 10 11 11 11 10 9 9 12 13
7 7 8 7 7 7 8 9 9 8 8 6 7 6 5 3 5 4 1 10 8 5 1 4 2 5 4 6 8 10 10 10 10 10 7 5 5 7
6 6 7 7 10 11 8 9 10 8 10 13 11 8 4 5 6 5 6 6 4 3 3 1 4 4 3 2 4 6 6 7 8 8 8 9 13 7
7 6 8 8 12 10 7 9 8 8 7 6 6 6 5 3 5 5 2 5 7 4 4 3 6 5 4 4 3 3 5 5 3 5 8 13 18 4
7 7 6 11 13 10 8 6 7 8 7 5 5 4 4 4 2 4 6 7 4 4 5 3 5 5 2 4 3 2 1 1 5 5 6 8 13 12
7 6 8 14 13 11 7 6 12 7 5 5 4 4 4 4 4 4 3 5 6 8 6 2 2 4 4 4 4 4 3 1 0 2 3 4 1 7
6 9 15 15 15 10 8 11 10 7 6 5 5 5 4 6 6 6 6 8 8 7 4 2 3 1 3 2 4 4 5 3 0 1 3 4 4 3
11 9 11 11 11 8 8 8 7 6 6 6 6 6 6 6 6 6 6 5 6 5 5 3 2 2 2 1 1 4 4 2 3 2 1 2 2 3
10 9 9 9 8 8 8 9 8 7 7 7 7 7 7 7 7 7 6 6 4 6 5 5 3 3 4 2 4 3 4 3 1 2 5 2 2 2
10 9 9 9 9 9 9 9 9 9 8 8 8 8 8 8 7 6 6 5 5 6 6 6 6 5 4 2 2 4 3 2 3 4 3 3 2 3
8 9 9 9 9 10 10 10 9 9 10 8 8 8 7 7 7 7 6 6 5 5 5 7 7 6 6 5 4 1 3 3 2 5 3 3 3 2
9 9 9 9 9 10 9 9 9 8 8 8 8 7 6 7 7 7 7 7 6 6 5 6 6 6 6 2 3 5 2 3 4 4 3 2 0 7
9 9 9 9 8 10 8 8 8 7 7 7 7 7 6 8 8 8 7 8 7 7 7 6 4 4 2 3 1 5 6 6 2 5 4 5 6 5
10 10 9 9 9 9 7 7 7 7 8 8 7 7 7 8 7 8 7 7 8 7 7 5 7 4 5 6 5 4 5 7 7 6 6 6 4 4
10 9 9 9 8 8 9 9 10 9 9 9 9 9 8 8 8 8 7 7 7 8 7 7 6 6 6 7 5 5 4 4 5 7 9 15 10 6
Wind_Direction
148 164 151 170 148 6 276 261 212 214 218 183 171 202 145 133 151 170 131 118 103 87 68 59 50 45 44 52 46 40 33 27 24 21 19 18 19 15
150 158 157 138 129 119 331 264 306 249 270 201 176 159 195 131 159 139 113 130 116 99 78 67 51 44 37 44 49 37 32 28 25 21 19 19 20 15
150 148 132 138 129 122 105 92 262 300 279 114 157 145 182 144 158 140 161 142 124 110 91 72 58 44 34 55 52 41 31 30 28 24 23 19 18 19
137 125 118 127 130 137 129 112 183 220 305 154 152 135 197 181 172 176 168 132 127 109 94 77 64 52 44 57 48 41 33 33 34 32 30 25 20 21
164 161 153 192 204 186 184 210 234 245 290 223 181 163 193 180 180 185 155 115 114 119 105 90 76 61 86 70 55 45 37 31 37 41 38 30 27 23
139 147 139 196 239 187 212 216 218 181 212 220 175 171 171 179 201 173 156 149 138 115 80 91 102 83 96 79 69 55 41 36 37 38 37 40 32 29
145 137 94 73 63 56 296 171 195 224 208 229 173 174 182 156 224 187 201 131 132 145 143 152 183 182 111 97 86 62 41 38 35 38 34 38 41 36
159 128 121 119 90 84 89 67 55 360 208 217 179 199 178 170 208 214 217 158 171 165 159 176 118 99 71 74 76 74 63 54 39 41 45 40 50 44
159 148 137 109 131 113 99 96 76 66 45 8 331 31 86 32 169 228 233 189 221 129 158 146 128 101 98 79 80 78 71 65 62 52 41 43 49 53
92 94 121 140 117 125 121 111 94 70 62 59 59 62 40 47 292 264 179 88 90 124 148 159 149 126 117 113 74 62 56 52 41 37 40 32 25 36
107 102 136 155 152 153 141 123 107 89 77 82 76 67 39 18 351 270 151 177 139 173 201 126 153 135 153 119 120 97 85 58 42 29 17 5 349 180
144 147 154 160 164 167 142 128 128 136 125 125 114 87 72 56 26 1 284 220 156 162 175 226 158 162 175 158 150 164 160 131 129 61 32 22 18 50
166 164 164 169 168 166 148 154 140 134 132 139 124 117 95 84 90 39 27 4 158 87 138 220 167 191 278 128 142 141 332 341 180 156 101 31 28 32
163 156 146 173 165 163 168 129 139 140 157 164 157 146 136 120 104 87 70 66 57 61 130 345 176 185 202 171 156 155 157 162 142 56 21 141 185 46
141 143 147 174 159 162 172 156 160 171 178 181 181 158 131 107 118 119 102 91 80 82 87 53 319 185 276 224 141 157 171 144 136 116 90 65 18 32
126 135 155 169 165 156 155 167 195 184 188 194 179 146 131 161 171 161 156 151 127 108 81 75 156 243 191 20 159 150 205 189 147 57 346 111 74 31
142 149 165 173 172 168 183 184 199 191 197 199 178 165 173 191 179 182 180 175 168 149 140 144 119 76 63 29 168 163 167 155 115 87 275 165 136 54
159 169 179 187 188 188 188 186 200 196 196 200 193 185 186 190 182 185 186 194 197 175 164 158 169 154 157 169 352 170 199 182 152 161 255 282 190 148
179 181 188 190 192 197 193 195 198 194 197 192 198 191 195 194 181 186 192 205 205 189 186 166 185 203 203 220 144 143 281 178 209 223 214 256 292 98
192 187 191 191 199 202 197 197 196 188 195 190 195 193 193 198 189 205 195 204 201 204 196 186 204 206 232 281 162 137 108 274 230 263 243 215 159 114
193 192 194 194 201 203 196 195 186 179 184 186 192 191 184 205 195 212 206 191 215 203 206 207 186 50 99 80 193 199 167 196 275 304 316 278 265 217
191 193 192 198 201 201 184 182 175 182 180 191 197 189 183 207 204 205 210 196 208 226 211 188 138 175 211 220 238 186 172 172 193 218 231 252 318 303
188 193 193 197 199 191 186 185 197 192 191 193 195 190 187 203 212 200 207 214 204 217 224 210 168 201 224 229 253 255 198 162 238 221 214 204 207 228